Date String (YYYY-MM-DD hh:mm:ss) UTC,Instrument flags,absolute air pressure of the measurement (hPa),sample flow rate (lpm),inlet stack bypass flow (lpm),air temperature of the measurement (°C),ambient temperature measured by the external sensor (°C),aerosol sample conditioner tube jacket temperature (°C),OPC LED temperature (°C),internal box temperature (°C),relative humidity of the measurement (%),span deviation,mass concentration of particles derived from Lorenz-Mie calculation of OPC scattering (μg/m³),mass concentration of particles derived from Lorenz-Mie calculation of OPC scattering (μg/m³),mass concentration of particles derived from Lorenz-Mie calculation of OPC scattering (μg/m³)
DateTimeUTC,F1_M11,P_M11,Q1_M11,Q2_M11,T1_M11,T2_M11,T3_M11,T4_M11,T5_M11,U1_M11,ZSPAN_M11,X2_M11,X0_M11,X1_M11
2024-03-20 16:00:00,SystemResetWarning,0830.0,5.00,000.00,020.2,019.7,000.0,028.6,022.0,19.0,0000.0,0003.44,0009.50,0002.36
2024-03-20 16:01:00,SystemResetWarning,0830.0,5.00,000.00,020.2,019.7,000.0,028.6,022.0,18.8,0000.0,0003.45,0009.49,0002.39
2024-03-20 16:02:00,SystemResetWarning,0830.0,5.00,000.00,020.2,019.7,000.0,028.6,022.0,18.9,0000.0,0003.48,0009.89,0002.41
2024-03-20 16:03:00,SystemResetWarning,0830.0,4.99,000.00,020.2,019.7,000.0,028.7,022.0,19.1,0000.0,0003.44,0010.22,0002.43
2024-03-20 16:04:00,SystemResetWarning,0830.0,4.99,000.00,020.3,019.7,000.0,028.7,022.0,19.0,0000.0,0003.45,0009.38,0002.42
2024-03-20 16:05:00,SystemResetWarning,0830.0,5.00,000.00,020.3,019.7,000.0,028.7,022.0,19.4,0000.0,0003.45,0009.61,0002.43
2024-03-20 16:06:00,SystemResetWarning,0830.0,5.01,000.00,020.3,019.7,000.0,028.7,022.0,19.6,0000.0,0003.45,0010.27,0002.46
2024-03-20 16:07:00,SystemResetWarning,0830.0,5.00,000.00,020.3,019.7,000.0,028.7,022.1,20.0,0000.0,0003.47,0010.89,0002.50
2024-03-20 16:08:00,SystemResetWarning,0830.0,5.00,000.00,020.3,019.7,000.0,028.7,022.1,20.0,0000.0,0003.58,0011.15,0002.54
2024-03-20 16:09:00,SystemResetWarning,0830.0,5.00,000.00,020.3,019.7,000.0,028.7,022.1,19.3,0000.0,0003.61,0011.29,0002.56
2024-03-20 16:10:00,SystemResetWarning,0830.0,5.00,000.00,020.3,019.7,000.0,028.7,022.1,19.1,0000.0,0003.63,0011.95,0002.57
2024-03-20 16:11:00,SystemResetWarning,0830.0,5.00,000.00,020.3,019.8,000.0,028.7,022.1,19.0,0000.0,0003.63,0011.58,0002.59
2024-03-20 16:12:00,SystemResetWarning,0830.0,4.99,000.00,020.3,019.8,000.0,028.7,022.1,19.0,0000.0,0003.67,0011.65,0002.58
2024-03-20 16:13:00,SystemResetWarning,0830.0,5.00,000.00,020.3,019.8,000.0,028.7,022.1,19.3,0000.0,0003.63,0011.56,0002.58
2024-03-20 16:14:00,SystemResetWarning,0830.0,4.99,000.00,020.3,019.8,000.0,028.7,022.1,19.5,0000.0,0003.66,0011.27,0002.59
2024-03-20 16:15:00,SystemResetWarning,0830.0,5.00,000.00,020.3,019.8,000.0,028.7,022.2,19.5,0000.0,0003.71,0011.73,0002.63
2024-03-20 16:16:00,SystemResetWarning,0830.0,5.00,000.00,020.3,019.8,000.0,028.7,022.2,19.7,0000.0,0003.75,0011.94,0002.65
2024-03-20 16:17:00,SystemResetWarning,0830.0,5.01,000.00,020.4,019.9,000.0,028.8,022.2,19.3,0000.0,0003.78,0012.40,0002.66
2024-03-20 16:18:00,SystemResetWarning,0830.0,5.00,000.00,020.4,019.9,000.0,028.8,022.2,18.8,0000.0,0003.78,0012.01,0002.66
2024-03-20 16:19:00,SystemResetWarning,0829.9,5.01,000.00,020.4,019.9,000.0,028.8,022.2,18.9,0000.0,0003.73,0011.42,0002.66
2024-03-20 16:20:00,SystemResetWarning,0830.0,5.00,000.00,020.4,019.9,000.0,028.8,022.2,19.1,0000.0,0003.71,0012.03,0002.67
2024-03-20 16:21:00,SystemResetWarning,0830.0,4.99,000.00,020.4,019.9,000.0,028.8,022.2,18.9,0000.0,0003.75,0012.07,0002.68
2024-03-20 16:22:00,SystemResetWarning,0829.9,4.99,000.00,020.4,019.9,000.0,028.8,022.2,18.7,0000.0,0003.74,0012.62,0002.68
2024-03-20 16:23:00,SystemResetWarning,0829.9,5.00,000.00,020.4,019.9,000.0,028.8,022.2,18.8,0000.0,0003.71,0013.40,0002.70
2024-03-20 16:24:00,SystemResetWarning,0829.9,5.01,000.00,020.4,019.9,000.0,028.8,022.2,18.8,0000.0,0003.76,0014.43,0002.72
2024-03-20 16:25:00,SystemResetWarning,0829.8,5.01,000.00,020.4,019.9,000.0,028.8,022.2,19.0,0000.0,0003.78,0014.72,0002.74
2024-03-20 16:26:00,SystemResetWarning,0829.9,5.01,000.00,020.5,019.9,000.0,028.8,022.3,18.6,0000.0,0003.75,0014.56,0002.73
2024-03-20 16:27:00,SystemResetWarning,0829.9,4.99,000.00,020.5,019.9,000.0,028.8,022.3,18.5,0000.0,0003.77,0014.42,0002.74
2024-03-20 16:28:00,SystemResetWarning,0829.9,4.99,000.00,020.5,020.0,000.0,028.8,022.3,18.8,0000.0,0003.76,0013.98,0002.74
2024-03-20 16:29:00,SystemResetWarning,0829.8,4.99,000.00,020.5,020.0,000.0,028.9,022.3,18.8,0000.0,0003.78,0013.74,0002.75
2024-03-20 16:30:00,SystemResetWarning,0829.8,5.00,000.00,020.5,020.0,000.0,028.9,022.3,18.7,0000.0,0003.82,0014.07,0002.76
2024-03-20 16:31:00,SystemResetWarning,0829.8,5.01,000.00,020.5,020.0,000.0,028.9,022.3,18.8,0000.0,0003.87,0014.59,0002.77
2024-03-20 16:32:00,SystemResetWarning,0829.8,5.00,000.00,020.5,020.0,000.0,028.9,022.3,18.9,0000.0,0003.87,0013.84,0002.78
2024-03-20 16:33:00,SystemResetWarning,0829.8,5.01,000.00,020.5,020.0,000.0,028.9,022.3,19.1,0000.0,0003.85,0013.35,0002.78
2024-03-20 16:34:00,SystemResetWarning,0829.8,4.99,000.00,020.6,020.1,000.0,028.9,022.4,19.0,0000.0,0003.89,0012.86,0002.81
2024-03-20 16:35:00,SystemResetWarning,0829.8,4.99,000.00,020.6,020.1,000.0,028.9,022.4,19.2,0000.0,0003.92,0013.14,0002.82
2024-03-20 16:36:00,SystemResetWarning,0829.8,5.00,000.00,020.6,020.1,000.0,028.9,022.4,19.3,0000.0,0003.93,0012.86,0002.83
2024-03-20 16:37:00,SystemResetWarning,0829.8,5.00,000.00,020.6,020.1,000.0,028.9,022.4,19.5,0000.0,0003.96,0012.90,0002.85
2024-03-20 16:38:00,SystemResetWarning,0829.7,5.00,000.00,020.6,020.1,000.0,029.0,022.4,19.2,0000.0,0003.95,0012.97,0002.88
2024-03-20 16:39:00,SystemResetWarning,0829.7,5.01,000.00,020.6,020.1,000.0,029.0,022.4,19.3,0000.0,0003.99,0013.00,0002.92
2024-03-20 16:40:00,SystemResetWarning,0829.7,5.00,000.00,020.6,020.1,000.0,029.0,022.4,18.9,0000.0,0003.99,0012.89,0002.97
2024-03-20 16:41:00,SystemResetWarning,0829.7,4.99,000.00,020.6,020.1,000.0,029.0,022.4,18.9,0000.0,0003.97,0012.57,0003.01
2024-03-20 16:42:00,SystemResetWarning,0829.7,4.99,000.00,020.6,020.1,000.0,029.0,022.4,19.0,0000.0,0003.93,0012.24,0003.05
2024-03-20 16:43:00,SystemResetWarning,0829.7,5.00,000.00,020.6,020.1,000.0,029.0,022.4,19.1,0000.0,0003.98,0012.44,0003.09
2024-03-20 16:44:00,SystemResetWarning,0829.7,5.00,000.00,020.6,020.1,000.0,029.0,022.4,19.6,0000.0,0004.01,0012.72,0003.11
2024-03-20 16:45:00,SystemResetWarning,0829.7,5.00,000.00,020.6,020.1,000.0,029.0,022.5,19.6,0000.0,0004.03,0012.74,0003.12
2024-03-20 16:46:00,SystemResetWarning,0829.7,5.01,000.00,020.7,020.1,000.0,029.0,022.5,19.3,0000.0,0004.04,0012.33,0003.14
2024-03-20 16:47:00,SystemResetWarning,0829.7,5.01,000.00,020.7,020.1,000.0,029.0,022.5,18.9,0000.0,0004.03,0011.81,0003.15
2024-03-20 16:48:00,SystemResetWarning,0829.7,5.00,000.00,020.7,020.2,000.0,029.0,022.5,19.1,0000.0,0004.03,0011.93,0003.17
2024-03-20 16:49:00,SystemResetWarning,0829.7,4.99,000.00,020.7,020.2,000.0,029.1,022.5,19.0,0000.0,0004.03,0011.61,0003.17
2024-03-20 16:50:00,SystemResetWarning,0829.7,4.99,000.00,020.7,020.2,000.0,029.1,022.5,19.2,0000.0,0004.00,0012.25,0003.17
2024-03-20 16:51:00,SystemResetWarning,0829.7,4.99,000.00,020.7,020.2,000.0,029.1,022.5,19.0,0000.0,0004.01,0011.83,0003.17
2024-03-20 16:52:00,SystemResetWarning,0829.7,5.00,000.00,020.7,020.2,000.0,029.1,022.5,19.2,0000.0,0004.01,0012.97,0003.17
2024-03-20 16:53:00,SystemResetWarning,0829.7,5.00,000.00,020.7,020.2,000.0,029.1,022.5,19.3,0000.0,0004.02,0013.28,0003.18
2024-03-20 16:54:00,SystemResetWarning,0829.7,5.01,000.00,020.7,020.3,000.0,029.1,022.6,19.2,0000.0,0004.02,0014.13,0003.19
2024-03-20 16:55:00,SystemResetWarning,0829.7,5.00,000.00,020.8,020.3,000.0,029.1,022.6,19.1,0000.0,0003.99,0014.30,0003.20
2024-03-20 16:56:00,SystemResetWarning,0829.7,5.00,000.00,020.8,020.3,000.0,029.1,022.6,18.9,0000.0,0004.00,0014.08,0003.20
2024-03-20 16:57:00,SystemResetWarning,0829.7,5.00,000.00,020.8,020.3,000.0,029.1,022.6,19.0,0000.0,0004.00,0013.31,0003.21
2024-03-20 16:58:00,SystemResetWarning,0829.7,4.99,000.00,020.8,020.3,000.0,029.1,022.6,19.1,0000.0,0004.06,0013.83,0003.21
2024-03-20 16:59:00,SystemResetWarning,0829.7,4.99,000.00,020.8,020.3,000.0,029.2,022.6,19.1,0000.0,0004.08,0014.01,0003.22
